Location: Brunembert
(50.7122°N, 1.8935°E)
Time: 14:49:05
(UTC+00:00)

Cosmos 1500 Rocket - Pass Details

Date: 06 August 2021
Orbit: 602 x 632 km, 82.5° (Epoch: 23 September)

Event Time Altitude Azimuth Distance (km) Brightness Sun altitude
Exits shadow 20:19:20 - 135° (SE) 2,052 5.6 -7.5°
Reaches altitude 10° 20:19:30 10° 133° (SE) 1,999 5.5 -7.6°
Maximum altitude 20:22:46 20° 85° (E) 1,443 5.0 -8.0°
Drops below altitude 10° 20:26:03 10° 38° (NE) 2,021 6.2 -8.4°
Sets 20:28:45 0° 22° (NNE) 2,938 7.3 -8.7°
